TimeEDT,TemperatureF,Dew PointF,Humidity,Sea Level PressureIn,VisibilityMPH,Wind Direction,Wind SpeedMPH,Gust SpeedMPH,PrecipitationIn,Events,Conditions,WindDirDegrees,DateUTC
12:15 AM,53.2,44.1,71,29.85,10.0,Calm,Calm,-,N/A,,Mostly Cloudy,0,2014-05-02 04:15:00
12:35 AM,50.2,43.9,79,29.86,10.0,Calm,Calm,-,N/A,,Scattered Clouds,0,2014-05-02 04:35:00
12:55 AM,48.9,42.8,79,29.87,10.0,Calm,Calm,-,N/A,,Scattered Clouds,0,2014-05-02 04:55:00
1:15 AM,48.9,43.3,81,29.88,10.0,WNW,3.5,-,N/A,,Clear,300,2014-05-02 05:15:00
1:35 AM,53.2,42.4,67,29.88,10.0,Calm,Calm,-,N/A,,Clear,0,2014-05-02 05:35:00
1:55 AM,56.7,40.8,55,29.88,10.0,Calm,Calm,-,N/A,,Clear,0,2014-05-02 05:55:00
2:15 AM,57.4,40.1,53,29.88,10.0,NW,3.5,-,N/A,,Clear,310,2014-05-02 06:15:00
2:35 AM,56.5,39.6,53,29.89,10.0,NW,3.5,-,N/A,,Clear,320,2014-05-02 06:35:00
2:55 AM,57.4,38.5,49,29.89,10.0,Calm,Calm,-,N/A,,Clear,0,2014-05-02 06:55:00
3:15 AM,56.5,38.5,51,29.90,10.0,Calm,Calm,-,N/A,,Clear,0,2014-05-02 07:15:00
3:35 AM,56.1,37.8,50,29.90,10.0,NNW,3.5,-,N/A,,Clear,330,2014-05-02 07:35:00
3:55 AM,54.9,37.8,53,29.91,10.0,Calm,Calm,-,N/A,,Clear,0,2014-05-02 07:55:00
4:15 AM,51.6,40.6,66,29.91,10.0,Calm,Calm,-,N/A,,Clear,0,2014-05-02 08:15:00
4:35 AM,49.8,42.1,75,29.91,10.0,Calm,Calm,-,N/A,,Clear,0,2014-05-02 08:35:00
4:55 AM,47.1,42.8,85,29.91,10.0,Calm,Calm,-,N/A,,Clear,0,2014-05-02 08:55:00
5:15 AM,45.7,42.8,90,29.91,10.0,Calm,Calm,-,N/A,,Clear,0,2014-05-02 09:15:00
5:35 AM,45.5,43.3,92,29.92,10.0,Calm,Calm,-,N/A,,Clear,0,2014-05-02 09:35:00
5:55 AM,45.3,42.8,91,29.92,10.0,Calm,Calm,-,N/A,,Clear,0,2014-05-02 09:55:00
6:15 AM,43.9,42.1,93,29.94,10.0,Calm,Calm,-,N/A,,Clear,0,2014-05-02 10:15:00
6:35 AM,42.4,41.0,95,29.94,10.0,Calm,Calm,-,N/A,,Clear,0,2014-05-02 10:35:00
6:55 AM,43.9,42.8,96,29.95,10.0,Calm,Calm,-,N/A,,Clear,0,2014-05-02 10:55:00
7:15 AM,45.0,44.1,97,29.95,10.0,Calm,Calm,-,N/A,,Clear,0,2014-05-02 11:15:00
7:35 AM,48.2,45.9,92,29.95,10.0,Calm,Calm,-,N/A,,Clear,0,2014-05-02 11:35:00
7:55 AM,50.5,45.5,83,29.95,10.0,Calm,Calm,-,N/A,,Clear,0,2014-05-02 11:55:00
8:15 AM,51.1,45.5,81,29.94,10.0,Calm,Calm,-,N/A,,Clear,0,2014-05-02 12:15:00
8:35 AM,53.1,46.6,79,29.94,10.0,Calm,Calm,-,N/A,,Clear,0,2014-05-02 12:35:00
8:55 AM,53.6,46.0,76,29.95,10.0,Calm,Calm,-,N/A,,Clear,0,2014-05-02 12:55:00
9:15 AM,56.8,44.6,64,29.95,10.0,WSW,4.6,-,N/A,,Clear,250,2014-05-02 13:15:00
9:35 AM,59.2,41.7,52,29.95,10.0,West,4.6,-,N/A,,Clear,260,2014-05-02 13:35:00
9:55 AM,59.5,40.1,49,29.96,10.0,West,3.5,-,N/A,,Clear,270,2014-05-02 13:55:00
10:15 AM,60.3,39.9,47,29.95,10.0,WSW,5.8,-,N/A,,Clear,240,2014-05-02 14:15:00
10:35 AM,60.3,39.9,47,29.96,10.0,WNW,3.5,-,N/A,,Clear,290,2014-05-02 14:35:00
10:55 AM,61.0,38.8,44,29.95,10.0,West,8.1,-,N/A,,Clear,260,2014-05-02 14:55:00
11:15 AM,61.2,39.9,46,29.95,10.0,WSW,5.8,-,N/A,,Clear,250,2014-05-02 15:15:00
11:55 AM,62.2,38.5,41,29.94,10.0,SSW,6.9,-,N/A,,Clear,210,2014-05-02 15:55:00
12:15 PM,63.9,38.5,39,29.93,10.0,SW,6.9,-,N/A,,Clear,220,2014-05-02 16:15:00
12:35 PM,65.1,39.2,39,29.92,10.0,West,6.9,-,N/A,,Clear,270,2014-05-02 16:35:00
12:55 PM,65.5,37.6,36,29.91,10.0,SW,3.5,-,N/A,,Clear,230,2014-05-02 16:55:00
1:15 PM,64.6,38.1,38,29.88,10.0,SSW,3.5,-,N/A,,Clear,210,2014-05-02 17:15:00
1:35 PM,66.4,38.1,35,29.89,10.0,South,3.5,-,N/A,,Clear,190,2014-05-02 17:35:00
1:55 PM,66.9,38.8,36,29.89,10.0,West,4.6,-,N/A,,Clear,270,2014-05-02 17:55:00
2:15 PM,67.8,40.8,37,29.89,10.0,SW,8.1,-,N/A,,Clear,220,2014-05-02 18:15:00
2:35 PM,68.2,39.6,35,29.88,10.0,South,8.1,-,N/A,,Clear,190,2014-05-02 18:35:00
2:55 PM,69.4,40.6,35,29.87,10.0,West,4.6,-,N/A,,Clear,260,2014-05-02 18:55:00
3:15 PM,70.2,39.4,33,29.87,10.0,SW,8.1,-,N/A,,Clear,220,2014-05-02 19:15:00
3:35 PM,68.0,38.7,34,29.87,10.0,SW,9.2,-,N/A,,Mostly Cloudy,220,2014-05-02 19:35:00
3:55 PM,70.0,37.9,31,29.86,10.0,SSW,9.2,-,N/A,,Scattered Clouds,210,2014-05-02 19:55:00
4:15 PM,70.9,39.4,32,29.85,10.0,WSW,10.4,16.1,N/A,,Clear,240,2014-05-02 20:15:00
4:35 PM,71.8,40.1,32,29.85,10.0,West,5.8,-,N/A,,Clear,260,2014-05-02 20:35:00
4:55 PM,71.2,39.6,32,29.84,10.0,West,6.9,-,N/A,,Scattered Clouds,260,2014-05-02 20:55:00
5:15 PM,70.7,39.4,32,29.84,10.0,SSW,6.9,-,N/A,,Clear,200,2014-05-02 21:15:00
5:35 PM,71.1,40.3,33,29.84,10.0,South,9.2,-,N/A,,Clear,190,2014-05-02 21:35:00
5:55 PM,70.9,40.1,33,29.84,10.0,WSW,10.4,-,N/A,,Clear,240,2014-05-02 21:55:00
6:15 PM,70.2,41.4,35,29.84,10.0,SSW,6.9,-,N/A,,Clear,200,2014-05-02 22:15:00
6:35 PM,68.9,41.5,37,29.84,10.0,SSW,10.4,-,N/A,,Clear,210,2014-05-02 22:35:00
6:55 PM,68.0,42.8,40,29.84,10.0,SW,9.2,-,N/A,,Clear,220,2014-05-02 22:55:00
7:15 PM,67.5,42.8,41,29.85,10.0,SW,9.2,-,N/A,,Clear,220,2014-05-02 23:15:00
7:35 PM,66.9,42.6,41,29.84,10.0,SSW,9.2,-,N/A,,Clear,210,2014-05-02 23:35:00
7:55 PM,65.8,42.1,42,29.84,10.0,SW,5.8,-,N/A,,Clear,220,2014-05-02 23:55:00
8:15 PM,64.4,43.0,46,29.84,10.0,SSW,4.6,-,N/A,,Clear,210,2014-05-03 00:15:00
8:35 PM,63.9,43.5,48,29.85,10.0,SSW,5.8,-,N/A,,Clear,210,2014-05-03 00:35:00
8:55 PM,63.5,43.3,48,29.85,10.0,SSW,4.6,-,N/A,,Clear,200,2014-05-03 00:55:00
9:15 PM,62.6,43.9,50,29.86,10.0,SSW,4.6,-,N/A,,Clear,210,2014-05-03 01:15:00
9:35 PM,61.9,44.2,52,29.87,10.0,SSW,4.6,-,N/A,,Clear,210,2014-05-03 01:35:00
9:55 PM,61.5,44.2,53,29.88,10.0,SSW,3.5,-,N/A,,Clear,200,2014-05-03 01:55:00
10:15 PM,61.0,44.2,54,29.88,10.0,SSW,3.5,-,N/A,,Clear,200,2014-05-03 02:15:00
10:35 PM,57.7,45.3,63,29.88,10.0,Calm,Calm,-,N/A,,Clear,0,2014-05-03 02:35:00
10:55 PM,54.5,46.8,75,29.89,10.0,Calm,Calm,-,N/A,,Clear,0,2014-05-03 02:55:00
11:15 PM,54.0,47.3,78,29.89,10.0,Calm,Calm,-,N/A,,Clear,0,2014-05-03 03:15:00
11:35 PM,52.9,47.3,81,29.89,10.0,Calm,Calm,-,N/A,,Clear,0,2014-05-03 03:35:00
11:55 PM,50.4,46.2,86,29.89,10.0,Calm,Calm,-,N/A,,Clear,0,2014-05-03 03:55:00